Regional Weather Roundup
Issued by NWS Upton, NY

Current Version | Previous Version | Text Only | Print | Product List | Glossary On
Versions: 1 2 3 4 5 6 7 8 9 10 11 12 13 14 15 16 17 18 19 20 21 22 23 24 25 26 27
000
ASUS41 KOKX 201708
RWROKX

REGIONAL WEATHER ROUNDUP
NATIONAL WEATHER SERVICE NEW YORK NY
100 PM EDT SUN AUG 20 2017

NOTE: "FAIR" INDICATES FEW OR NO CLOUDS BELOW 12,000 FEET WITH NO
SIGNIFICANT WEATHER AND/OR OBSTRUCTIONS TO VISIBILITY.

NYZ071-072-176-178-NJZ106-104-201800-
NEW YORK CITY METRO AREA

CITY           SKY/WX    TMP DP  RH WIND       PRES   REMARKS
Central Park   SUNNY     79  58  48 VRB5      30.09S
Bronx Bot Gard   N/A     79  57  47 W5        30.09R
LaGuardia APRT PTSUNNY   79  60  52 NW10      30.05S
Kennedy INTL   MOSUNNY   82  59  45 W9G18     30.06S
Breezy Point     N/A     77 N/A N/A W9          N/A
Newark/Liberty PTSUNNY   81  58  45 N13G21    30.07R
Teterboro      MOSUNNY   79  60  52 NW9       30.06R
$$

NYZ177-179-078>081-201800-
LONG ISLAND NEW YORK

CITY           SKY/WX    TMP DP  RH WIND       PRES   REMARKS
Jones Beach      N/A     79 N/A N/A NW8         N/A
Matinecock PT    N/A     75 N/A N/A W12         N/A
Farmingdale    SUNNY     80  60  50 N9        30.05S
MacArthur/ISP  MOSUNNY   81  61  50 NW8       30.05R
Shirley        MOSUNNY   81  63  54 NW9       30.05R
Mt Sinai Harb    N/A     81 N/A N/A NW5         N/A
Westhampton    MOSUNNY   80  59  48 NW15G24   30.05S
East Hampton   FAIR      78  62  58 NW9G17    30.03R
Montauk          N/A     78  66  66 W10       30.03R
$$

NYZ052-065-067-201800-
HUDSON VALLEY

CITY           SKY/WX    TMP DP  RH WIND       PRES   REMARKS
White Plains   MOSUNNY   78  60  53 NW9       30.07R
Larchmont Harb   N/A     75 N/A N/A W10         N/A
Croton On Huds   N/A     77 N/A N/A W9          N/A
Newburgh       MOSUNNY   77  61  57 NW12      30.09S
Montgomery     MOSUNNY   79  60  52 N7        30.08R
Poughkeepsie   MOSUNNY   78  57  48 NW10G16   30.06R
Albany         PTSUNNY   77  59  53 W10       30.06R
$$

NJZ001-105-106-008-010-013-015-019>022-104-201800-
NEW JERSEY

CITY           SKY/WX    TMP DP  RH WIND       PRES   REMARKS
Newark/Liberty PTSUNNY   81  58  45 N13G21    30.07R
Teterboro      MOSUNNY   79  60  52 NW9       30.06R
Caldwell       MOSUNNY   78  60  53 W10G18    30.09R
Somerville     SUNNY     81  61  50 NW10      30.08R
Linden         FAIR      80  58  47 W12G17    30.08R
Perth Amboy      N/A     75 N/A N/A NW9G15      N/A
Sussex         MOSUNNY   77  61  57 NW9       30.10S
Andover          N/A     77  61  57 CALM      30.10S
Trenton        SUNNY     79  60  52 N9        30.09S
Millville      SUNNY     83  63  50 N9        30.11R
Atlantic City  SUNNY     82  60  47 NW12      30.09S
Wrightstown    SUNNY     79  61  52 NW10      30.07S
Toms River     SUNNY     81  62  52 NW13      30.09S
Belmar         SUNNY     80  61  52 W10G17    30.09S
$$

PAZ047>061-062-071-201800-
EASTERN PENNSYLVANIA

CITY           SKY/WX    TMP DP  RH WIND       PRES   REMARKS
Philadelphia   MOSUNNY   82  56  40 NW10      30.11S
Allentown      SUNNY     79  60  52 N7        30.12R
Scranton       SUNNY     76  59  55 VRB6      30.15R
$$

CTZ002-004>006-009-010-012-RIZ004-006-007-MAZ004-011-015-201800-
SOUTHERN NEW ENGLAND
 IN CT

CITY           SKY/WX    TMP DP  RH WIND       PRES   REMARKS
Bradley INTL   PTSUNNY   82  58  43 NW12      30.02R
Hartford       PTSUNNY   79  59  50 W10       30.02R
Danbury        MOSUNNY   77  59  53 NW10      30.08R
Wtrbury/Oxford PTSUNNY   74  60  61 NW8       30.07R
Norwalk Harbor   N/A     75 N/A N/A NW8         N/A
Bridgeport     PTSUNNY   79  60  52 N8        30.04R
Meriden        CLOUDY    78  59  51 W9        30.03R
New Haven      PTSUNNY   79  61  53 VRB7      30.04R
Chester        PTSUNNY   77  59  53 NW9G18    30.04R
Groton         MOSUNNY   82  60  47 NW10      30.00R
Wilimantic     MOSUNNY   80  60  50 W12G22    30.01S

 IN RI

CITY           SKY/WX    TMP DP  RH WIND       PRES   REMARKS
Providence     MOSUNNY   82  60  47 NW13      29.98S
Block Island   SUNNY     77  66  68 W14       30.02R
Westerly       MOSUNNY   83  60  45 W10G21    30.01R
 IN MA

CITY           SKY/WX    TMP DP  RH WIND       PRES   REMARKS
Boston         MOSUNNY   81  59  47 NW13      29.95S
Worcester      MOSUNNY   76  56  49 W14       30.02S
Westfield      MOSUNNY   80  58  46 W12G22    30.02R
Provincetown   SUNNY     79  64  60 NW8       29.97R
Nantucket      SUNNY     80  67  64 W16       29.97R
$$

ANZ330-335-338-340-345-350-353-355-201800-
COASTAL MARINE OBSERVATIONS


STATION/POSITION TIME  SKY/WX   TEMP    WIND        PRES    VSBY  WAVE
                                AIR SEA DIR/SP/G                  HT/PER
                 (UTC)          (F)     (DEG/KT/KT) (MB)    (MI)  (FT/S)
NY HARB ENTRANCE 1550            73 76  280/ 14/ 17 1017.5          2/ 6
GREAT SOUTH BAY  1630            77 79  280/  4/ 10   N/A
23 SSW MONTAUK P 1550            72 72              1016.9          3/ 6
15 E BARNEGAT LI 1630               77                N/A           3/ 6
HUDSON CANYON    1550            73 74  310/ 16/ 17 1016.9          4/ 5
KINGS POINT      1630            76 74  360/  7/ 11 1017.8
EXECUTION ROCKS  NOT AVBL
WESTERN LI SOUND NOT AVBL
CENTRAL LI SOUND NOT AVBL
EASTERN LI SOUND NOT AVBL
ROBBINS REEF     1624                   290/ 12/ 18 1018.6
$$


>>>>>>>>>>>>>>>>>>>>>>>>>>>> KEY <<<<<<<<<<<<<<<<<<<<<<<<<<<
>                                                          <
>     SKY/WX - Sky Condition/Present Weather               <
>     TMP    - Temperature in Fahrenheit                   <
>     DP     - Dew Point in Fahrenheit                     <
>     RH     - Relative Humidity in Percent                <
>     WIND   - Direction (from) and Speed in MPH           <
>     PRES   - Mean Sea Level Pressure (inches of Hg)      <
>     WCI    - Wind Chill Index                            <
>     VSB    - VISIBILITY IN MILES                         <
>     HX     - HEAT INDEX                                  <
>     TC     - TEMPERATURE IN CELSIUS                      <
>     VRB    - VARIABLE WIND DIRECTION                     <
>                                                          <
>>>>>>>>>>>>>>>>>>>>>>>>>>>> KEY <<<<<<<<<<<<<<<<<<<<<<<<<<<




USA.gov is the U.S. government's official web portal to all federal, state and local government web resources and services.